Location: Newark
(16.9667°N, 88.2167°W)
Time: 16:10:58
(UTC+00:00)

ISS - Visible Passes

Search period start: 21 October 2019 00:00
Search period end: 31 October 2019 00:00
Orbit: 411 x 421 km, 51.6° (Epoch: 21 October)

Date Brightness Start Highest point End Pass type
(mag) Time Alt. Az. Time Alt. Az. Time Alt. Az.
21 Oct -0.5 10:07:49 10° SE 10:09:00 11° ESE 10:10:09 10° ESE visible
22 Oct -3.8 10:54:01 13° SW 10:56:54 63° NW 11:00:13 10° NNE visible
23 Oct -2.5 10:09:09 40° E 10:09:09 40° E 10:11:38 10° NE visible
24 Oct -1.8 10:56:54 15° NW 10:56:54 15° NW 10:58:31 10° N visible
